Regional Weather Roundup
Issued by NWS Jackson, KY

Home | Current Version | Previous Version | Graphics & Text | Print | Product List | Glossary On
Versions: 1 2 3 4 5 6 7 8 9 10 11 12 13 14 15 16 17 18 19 20 21 22 23 24 25 26 27 28 29 30 31 32 33 34 35 36 37 38 39 40 41 42 43 44 45 46 47 48 49 50
000
ASUS43 KJKL 181019
RWRJKL

EAST KENTUCKY HOURLY WEATHER ROUNDUP
NATIONAL WEATHER SERVICE JACKSON KY
600 AM EDT FRI APR 18 2014

NOTE: "FAIR" INDICATES FEW OR NO CLOUDS BELOW 12,000 FEET WITH
NO SIGNIFICANT WEATHER AND/OR OBSTRUCTIONS TO VISIBILITY.

* THESE REPORTS ARE NOT UNDER NWS QUALITY CONTROL AND MAY NOT
  REPORT WEATHER SUCH AS PRECIPITATION AND FOG.

KYZ079-080-083-085-087-088-110-112-115-119-120-181100
...EASTERN KENTUCKY...

CITY           SKY/WX    TMP DP  RH WIND       PRES   REMARKS
JACKSON        CLOUDY    52  25  35 SW3       30.30S
LONDON         CLOUDY    48  36  63 CALM      30.30S
SOMERSET*      CLOUDY    48  34  57 CALM      30.30S
MONTICELLO*    CLOUDY    47  42  82 CALM      30.31R
MIDDLESBORO*   CLOUDY    42  37  82 CALM      30.33R
HARLAN APT*    CLOUDY    50  23  34 E3        30.32R
BLACK MTN*       N/A     41  23  48 S7          N/A
PIKEVILLE APT* CLEAR     52  21  30 SE6       30.31R
BIG SANDY*     CLOUDY    52  24  34 S3        30.31S
ASHLAND*       CLEAR     45  36  70 SE5       30.28R
MOREHEAD APT*  MOSUNNY   50  32  50 S3        30.31R
$$

KYZ035-036-041-042-044-050-067-078-099-181100
...CENTRAL KENTUCKY...

CITY           SKY/WX    TMP DP  RH WIND       PRES   REMARKS
MT STERLING*   CLOUDY    50  32  50 SW6       30.30S
FLEMING/MASON* CLEAR     46  36  66 S6        30.29S
DANVILLE*      CLOUDY    45  37  76 CALM      30.30S
LEXINGTON      CLOUDY    50  35  56 S6        30.28S
FRANKFORT      CLOUDY    44  39  82 CALM      30.27S
$$

KYZ091>093-OHZ055-061-077-WVZ005-015-034-035-042-181100
...SOUTHERN OHIO/WEST VIRGINIA...

CITY           SKY/WX    TMP DP  RH WIND       PRES   REMARKS
COVINGTON      CLOUDY    45  37  73 S3        30.27S
COLUMBUS       MOCLDY    45  33  63 SE3       30.28R
DAYTON         PTCLDY    47  34  60 S6        30.27S
WILMINGTON     PTCLDY    43  33  68 CALM      30.27S
HUNTINGTON     CLOUDY    51  24  34 S6        30.29R
CHARLESTON     CLOUDY    51  24  34 CALM      30.30S
PINEVILLE*     CLOUDY    40  34  76 MISG      30.39R
BECKLEY        CLOUDY    43  25  49 SE8       30.33F
BLUEFIELD      CLOUDY    45  24  43 VRB6      30.34S
$$

VAZ002-007-008-TNZ017-027-036-066-071-181100
...SOUTHWEST VIRGINIA/EAST TENNESSEE...

CITY           SKY/WX    TMP DP  RH WIND       PRES   REMARKS
WISE*          CLOUDY    46  18  31 CALM      30.34R
ABINGDON*      CLOUDY    46  24  42 E6        30.34S
BRISTOL        CLOUDY    40  30  67 CALM      30.34R
KNOXVILLE      CLOUDY    49  37  63 NE7       30.30R
OAK RIDGE      CLOUDY    47  40  76 CALM      30.32R
CROSSVILLE     CLOUDY    50  37  61 CALM      30.30R
NASHVILLE      CLOUDY    54  44  69 CALM      30.27R
$$

...KEY TO REMARKS...
VSB - VISIBILITY IN MILES
WCI - WIND CHILL INDEX
HX  - HEAT INDEX

$$



USA.gov is the U.S. government's official web portal to all federal, state and local government web resources and services.